Flag Weather past 2 weeks in Mount Pearl, Newfoundland and Labrador, Canada

Now
46 °F

Partly sunny.


Feels Like: 41 °F
Forecast: 37 / 47 °F
Wind: 12 mph from Northwest

Location: St. John's

Current Time: Oct 31, 2014 at 2:14:42 PM

Latest Report: Oct 31, 2014 at 1:30 PM


Visibility: 15 mi

Pressure: 29.93 "Hg

Humidity: 76%

Dew point: 39 °F

Location of Mount PearlLocation

Historic Weather in Mount Pearl — Graph

°F

Mount Pearl temperature yesterday

Maximum temperature yesterday: 61 °F (at 11:30 AM)
Minimum temperature yesterday: 39 °F (at 12:30 AM)
Average temperature yesterday: 53 °F

Past Weeks' High & Low Weather Summary

 TemperatureHumidityPressure
High68 °F (Oct 19, 1:30 PM)100% (Oct 17, 12:30 AM)30.48 "Hg (Oct 17, 12:30 AM)
Low36 °F (Oct 17, 4:30 AM)58% (Oct 21, 2:30 PM)29.11 "Hg (Oct 19, 7:30 AM)
Average48 °F92%29.84 "Hg
* Reported Oct 16 12:30 PM — Oct 31 12:30 PM, Mount Pearl, Weather by CustomWeather, © 2014

Note: Actual official high and low records may vary slightly from our data, if they occured in-between our weather recording intervals... More about our weather records

Advertising

Mount Pearl weather history for previous 24 hours

 ConditionsComfort  
Time TempWeatherWind HumidityBarometerVisibility
12:30 PM
Oct 31
46 °FBroken clouds.16 mph76%29.92 "Hg15 mi
11:30 AM46 °FScattered clouds.16 mph76%29.91 "Hg15 mi
10:30 AM45 °FScattered clouds.15 mph81%29.90 "Hg15 mi
9:30 AM45 °FScattered clouds.17 mph81%29.88 "Hg15 mi
8:30 AM41 °FPartly sunny.10 mph87%29.85 "Hg15 mi
7:30 AM43 °FPartly cloudy.10 mph87%29.82 "Hg15 mi
6:30 AM43 °FMostly cloudy.12 mph93%29.79 "Hg15 mi
5:30 AM45 °FMostly cloudy.7 mph87%29.77 "Hg15 mi
4:30 AM48 °FMostly cloudy.12 mph94%29.75 "Hg15 mi
3:30 AM48 °FMostly cloudy.8 mph94%29.75 "Hg15 mi
2:30 AM48 °FMostly cloudy.13 mph94%29.73 "Hg15 mi
1:30 AM48 °FOvercast.15 mph94%29.71 "Hg15 mi
12:30 AM50 °FOvercast.16 mph94%29.71 "Hg15 mi
11:30 PM
Oct 30
54 °FSprinkles. Mostly cloudy.14 mph94%29.70 "Hg12 mi
10:30 PM55 °FSprinkles. Low clouds.14 mph94%29.71 "Hg4 mi
9:30 PM55 °FSprinkles. Fog.16 mph100%29.71 "Hg3 mi
8:30 PM57 °FSprinkles. Low clouds.22 mph94%29.70 "Hg12 mi
7:30 PM57 °FPassing clouds.20 mph100%29.70 "Hg15 mi
6:30 PM57 °FMostly cloudy.22 mph100%29.70 "Hg8 mi
5:30 PM57 °FMostly cloudy.20 mph100%29.70 "Hg15 mi
4:30 PM59 °FSprinkles. Mostly cloudy.23 mph94%29.71 "Hg15 mi
4:17 PM59 °FRain showers. Mostly cloudy.22 mph94%29.71 "Hg12 mi
3:30 PM59 °FSprinkles. Overcast.24 mph94%29.70 "Hg15 mi
2:30 PM61 °FLow clouds.24 mph94%29.71 "Hg10 mi
Weather by CustomWeather, © 2014

See weather overviewHow to use our weather pages